QPF
0.00 0.00 0.00 0.00 0.00 0.00 0.00 0.00 0.00 0.00 0.00 0.00 0.00 0.00 0.00 0.00 0.00 0.00 0.00 0.00 0.00 0.00 0.00 0.00 0.00 0.00 0.00 0.00 0.00 0.00 0.00 0.00 0.00 0.00 0.00 0.00 0.00 0.00 0.01 0.00 0.00 0.00 0.00 0.00
0.00 0.00 0.00 0.00 0.00 0.00 0.00 0.00 0.00 0.00 0.00 0.00 0.00 0.00 0.00 0.00 0.00 0.00 0.00 0.00 0.00 0.00 0.00 0.00 0.00 0.00 0.00 0.00 0.00 0.00 0.00 0.00 0.00 0.00 0.00 0.00 0.00 0.00 0.00 0.00 0.00 0.00 0.00 0.00
0.00 0.00 0.00 0.00 0.00 0.00 0.00 0.00 0.00 0.00 0.00 0.00 0.00 0.00 0.00 0.00 0.00 0.00 0.00 0.00 0.00 0.00 0.00 0.00 0.00 0.00 0.00 0.00 0.00 0.00 0.00 0.00 0.00 0.00 0.00 0.00 0.00 0.00 0.00 0.00 0.00 0.00 0.00 0.00
0.00 0.00 0.00 0.00 0.00 0.00 0.00 0.00 0.00 0.00 0.00 0.00 0.00 0.00 0.00 0.00 0.00 0.00 0.00 0.00 0.00 0.00 0.00 0.00 0.00 0.00 0.00 0.00 0.00 0.00 0.00 0.00 0.00 0.00 0.00 0.00 0.00 0.00 0.00 0.00 0.00 0.00 0.00 0.00
0.00 0.00 0.00 0.00 0.00 0.00 0.00 0.00 0.00 0.00 0.01 0.01 0.00 0.01 0.00 0.00 0.00 0.00 0.00 0.00 0.00 0.00 0.00 0.00 0.00 0.00 0.00 0.00 0.00 0.00 0.00 0.00 0.00 0.00 0.01 0.02 0.01 0.01 0.01 0.00 0.00 0.00 0.00 0.00
0.00 0.00 0.00 0.00 0.00 0.00 0.00 0.00 0.00 0.00 0.01 0.01 0.00 0.00 0.00 0.00 0.00 0.00 0.00 0.00 0.00 0.00 0.00 0.00 0.00 0.00 0.00 0.00 0.00 0.00 0.00 0.00 0.00 0.01 0.02 0.05 0.03 0.03 0.01 0.00 0.00 0.00 0.00 0.00
0.00 0.00 0.00 0.00 0.00 0.00 0.00 0.00 0.00 0.00 0.00 0.00 0.00 0.00 0.00 0.00 0.00 0.00 0.00 0.00 0.00 0.00 0.00 0.00 0.00 0.00 0.00 0.00 0.00 0.00 0.00 0.00 0.00 0.02 0.07 0.07 0.05 0.04 0.01 0.00 0.00 0.00 0.00 0.00
0.00 0.00 0.00 0.00 0.00 0.00 0.00 0.00 0.00 0.00 0.00 0.00 0.00 0.00 0.00 0.00 0.00 0.00 0.00 0.00 0.00 0.00 0.00 0.00 0.00 0.00 0.00 0.00 0.00 0.00 0.00 0.00 0.01 0.03 0.08 0.07 0.05 0.01 0.00 0.00 0.00 0.00 0.00 0.00
0.00 0.00 0.00 0.00 0.00 0.00 0.00 0.00 0.00 0.01 0.00 0.01 0.00 0.00 0.00 0.00 0.00 0.00 0.00 0.00 0.00 0.00 0.00 0.00 0.00 0.00 0.00 0.00 0.00 0.00 0.00 0.00 0.01 0.04 0.09 0.11 0.07 0.03 0.00 0.00 0.00 0.00 0.00 0.00
0.00 0.01 0.00 0.00 0.00 0.00 0.01 0.00 0.03 0.02 0.02 0.00 0.00 0.00 0.00 0.00 0.00 0.00 0.00 0.00 0.00 0.00 0.00 0.00 0.00 0.00 0.00 0.00 0.00 0.00 0.00 0.00 0.01 0.04 0.09 0.11 0.06 0.03 0.00 0.00 0.00 0.00 0.00 0.00
0.00 0.00 0.00 0.00 0.00 0.00 0.01 0.02 0.03 0.02 0.02 0.01 0.00 0.00 0.00 0.00 0.00 0.00 0.00 0.00 0.00 0.00 0.00 0.00 0.00 0.00 0.00 0.00 0.00 0.00 0.00 0.00 0.01 0.03 0.05 0.09 0.09 0.04 0.00 0.00 0.00 0.00 0.00 0.00
0.00 0.00 0.00 0.00 0.00 0.00 0.00 0.00 0.00 0.00 0.00 0.00 0.00 0.00 0.00 0.00 0.00 0.00 0.00 0.00 0.00 0.00 0.00 0.00 0.00 0.00 0.00 0.00 0.00 0.00 0.00 0.00 0.00 0.00 0.02 0.06 0.08 0.05 0.01 0.00 0.00 0.00 0.00 0.00
0.00 0.00 0.00 0.00 0.00 0.00 0.00 0.00 0.00 0.00 0.01 0.00 0.00 0.00 0.00 0.00 0.00 0.00 0.00 0.00 0.00 0.00 0.00 0.00 0.00 0.00 0.00 0.00 0.00 0.00 0.00 0.00 0.00 0.00 0.02 0.02 0.02 0.01 0.00 0.00 0.00 0.00 0.00 0.00
0.00 0.00 0.00 0.00 0.00 0.00 0.00 0.00 0.00 0.01 0.01 0.01 0.00 0.00 0.00 0.00 0.00 0.00 0.00 0.00 0.00 0.01 0.01 0.01 0.00 0.00 0.00 0.00 0.00 0.00 0.00 0.00 0.00 0.00 0.00 0.00 0.00 0.00 0.00 0.00 0.00 0.00 0.00 0.00
0.02 0.00 0.00 0.00 0.00 0.00 0.00 0.00 0.00 0.00 0.00 0.00 0.00 0.00 0.00 0.00 0.00 0.00 0.00 0.00 0.00 0.00 0.00 0.00 0.00 0.01 0.00 0.00 0.00 0.00 0.00 0.00 0.00 0.00 0.00 0.00 0.00 0.00 0.00 0.00 0.00 0.00 0.00 0.00
0.00 0.00 0.00 0.00 0.00 0.00 0.00 0.00 0.00 0.00 0.00 0.00 0.00 0.00 0.00 0.00 0.00 0.00 0.00 0.00 0.00 0.00 0.00 0.00 0.00 0.00 0.00 0.00 0.00 0.00 0.00 0.00 0.00 0.00 0.00 0.00 0.00 0.00 0.00 0.00 0.00 0.00 0.00 0.00
0.00 0.00 0.00 0.00 0.00 0.00 0.00 0.00 0.00 0.00 0.00 0.00 0.00 0.00 0.00 0.00 0.00 0.00 0.00 0.00 0.00 0.00 0.00 0.00 0.00 0.00 0.00 0.00 0.00 0.00 0.00 0.00 0.00 0.00 0.00 0.00 0.00 0.00 0.00 0.00 0.00 0.00 0.00 0.00
0.00 0.00 0.00 0.00 0.00 0.00 0.00 0.00 0.00 0.00 0.00 0.00 0.00 0.00 0.00 0.00 0.00 0.00 0.00 0.00 0.00 0.00 0.00 0.00 0.00 0.01 0.02 0.01 0.00 0.00 0.00 0.00 0.00 0.00 0.00 0.00 0.00 0.00 0.00 0.00 0.00 0.00 0.00 0.00
0.00 0.00 0.00 0.00 0.00 0.00 0.00 0.00 0.00 0.01 0.01 0.02 0.01 0.00 0.00 0.00 0.00 0.00 0.00 0.00 0.00 0.00 0.00 0.00 0.00 0.00 0.02 0.02 0.01 0.00 0.00 0.00 0.00 0.00 0.00 0.00 0.00 0.00 0.00 0.00 0.00 0.00 0.00 0.00
0.00 0.00 0.00 0.00 0.00 0.00 0.00 0.00 0.00 0.01 0.02 0.02 0.00 0.00 0.00 0.00 0.00 0.00 0.00 0.00 0.00 0.00 0.00 0.00 0.00 0.00 0.01 0.01 0.01 0.00 0.00 0.00 0.00 0.00 0.00 0.00 0.00 0.00 0.00 0.00 0.00 0.00 0.00 0.00
0.00 0.00 0.00 0.00 0.00 0.00 0.00 0.00 0.00 0.01 0.00 0.00 0.00 0.00 0.00 0.00 0.00 0.00 0.00 0.00 0.00 0.00 0.00 0.00 0.00 0.00 0.00 0.00 0.00 0.00 0.00 0.00 0.00 0.00 0.00 0.00 0.00 0.00 0.00 0.00 0.00 0.00 0.00 0.00
0.00 0.00 0.00 0.00 0.01 0.00 0.00 0.00 0.00 0.00 0.00 0.00 0.00 0.00 0.00 0.00 0.00 0.00 0.00 0.00 0.00 0.00 0.00 0.00 0.00 0.00 0.00 0.00 0.00 0.00 0.00 0.00 0.00 0.00 0.00 0.00 0.00 0.00 0.00 0.00 0.00 0.00 0.00 0.00
0.00 0.00 0.00 0.00 0.00 0.00 0.00 0.00 0.00 0.00 0.00 0.00 0.00 0.00 0.00 0.00 0.00 0.00 0.00 0.00 0.00 0.00 0.00 0.00 0.00 0.00 0.00 0.00 0.00 0.00 0.00 0.00 0.00 0.00 0.00 0.00 0.00 0.00 0.00 0.00 0.00 0.00 0.00 0.00
0.00 0.00 0.00 0.00 0.00 0.00 0.00 0.00 0.00 0.00 0.00 0.00 0.00 0.00 0.00 0.00 0.00 0.00 0.00 0.00 0.00 0.00 0.00 0.00 0.00 0.00 0.00 0.00 0.00 0.00 0.00 0.00 0.00 0.00 0.00 0.00 0.00 0.00 0.00 0.00 0.00 0.00 0.00 0.00
0.00 0.00 0.00 0.00 0.00 0.00 0.00 0.00 0.00 0.00 0.00 0.00 0.00 0.00 0.00 0.00 0.00 0.00 0.00 0.00 0.00 0.00 0.00 0.00 0.00 0.00 0.00 0.00 0.00 0.00 0.00 0.00 0.00 0.00 0.00 0.00 0.00 0.00 0.00 0.00 0.00 0.00 0.00 0.00
0.00 0.00 0.00 0.00 0.00 0.00 0.00 0.00 0.00 0.00 0.00 0.00 0.00 0.00 0.01 0.00 0.00 0.00 0.00 0.00 0.00 0.00 0.00 0.00 0.00 0.00 0.00 0.00 0.00 0.00 0.00 0.00 0.00 0.00 0.00 0.00 0.00 0.00 0.00 0.00 0.00 0.00 0.00 0.00
MSLP
1011.41 1011.86 1010.97 1010.75 1011.13 1010.86 1011.21 1011.19 1010.97 1010.82 1010.07 1009.44 1008.81 1006.03 1002.30 1003.99 1003.47 1003.11 1002.74 1002.48 1001.83 1001.25 1000.91 1001.13 1001.58 1002.26 1003.32 1004.02 1004.80 1005.53 1006.52 1007.44 1008.47 1009.43 1010.49 1011.71 1012.59 1013.54 1014.18 1014.70 1015.16 1015.70 1015.82 1016.42
1010.82 1009.91 1010.17 1010.57 1010.99 1011.19 1011.02 1010.93 1010.05 1009.79 1009.59 1009.52 1008.81 1005.63 1002.61 1002.41 1002.11 1002.07 1001.15 1000.35 1000.31 1000.01 999.91 1000.05 1000.55 1001.35 1001.98 1002.54 1003.81 1004.98 1005.52 1006.26 1007.08 1007.94 1009.10 1010.36 1011.65 1013.04 1013.70 1014.39 1015.01 1015.42 1015.74 1016.36
1010.14 1009.16 1008.75 1009.87 1010.40 1010.87 1010.34 1010.94 1010.15 1010.21 1009.80 1009.19 1008.83 1005.52 1001.97 1000.50 1000.70 1000.64 999.52 999.63 999.37 999.25 999.33 999.60 1000.03 1000.24 1000.78 1001.48 1001.90 1002.86 1003.94 1004.96 1005.96 1007.13 1008.46 1009.91 1011.61 1013.00 1013.63 1013.91 1014.36 1014.95 1015.55 1016.15
1010.01 1009.07 1008.90 1009.55 1009.76 1010.06 1008.72 1009.90 1009.94 1010.00 1010.12 1008.80 1008.15 1005.72 1001.79 1001.33 1000.33 999.96 1000.42 1000.17 1000.00 999.02 999.08 998.99 999.43 999.93 1000.10 1000.05 1000.91 1002.09 1002.97 1004.04 1005.27 1006.23 1007.04 1007.90 1009.19 1011.11 1012.15 1013.02 1013.98 1014.58 1015.22 1015.94
1009.47 1008.79 1008.83 1009.24 1009.34 1009.41 1008.17 1009.26 1009.67 1009.70 1009.33 1009.37 1006.26 1006.84 1002.48 1001.17 999.99 997.90 999.89 999.40 999.20 999.82 999.17 999.31 999.20 999.34 999.22 999.42 1000.01 1000.95 1002.45 1003.62 1004.44 1005.46 1006.33 1007.38 1008.88 1010.26 1011.42 1012.59 1013.60 1014.29 1015.43 1015.98
1010.20 1009.35 1009.37 1009.00 1009.26 1009.48 1009.31 1009.42 1009.53 1009.21 1008.80 1008.55 1005.02 1006.18 1004.89 1001.27 997.96 999.18 999.65 999.93 1000.09 999.93 999.54 998.89 999.15 999.13 999.21 999.71 1000.29 1000.83 1001.49 1002.29 1003.40 1004.62 1005.65 1006.64 1007.76 1009.61 1011.00 1012.18 1013.13 1014.09 1014.92 1015.96
1010.34 1009.57 1008.90 1008.75 1009.14 1009.69 1009.89 1010.52 1010.40 1008.97 1008.11 1006.34 1005.16 1005.22 1001.66 1000.42 1000.09 1000.61 1000.60 1001.07 1001.07 1000.85 1000.01 999.62 998.81 999.15 998.71 999.01 999.66 1000.12 1000.79 1001.35 1002.16 1003.26 1004.53 1005.57 1006.86 1008.43 1009.56 1010.84 1011.67 1013.28 1014.53 1015.60
1011.71 1009.73 1009.46 1009.87 1010.04 1009.98 1009.97 1010.51 1010.56 1009.27 1007.63 1005.72 1005.48 1003.46 1001.12 1000.62 1001.08 1001.97 1002.53 1002.44 1002.31 1001.40 1000.56 999.95 999.24 998.57 998.62 997.92 998.58 999.52 1000.06 1000.91 1001.71 1002.56 1003.72 1005.01 1006.22 1007.69 1009.06 1010.16 1011.48 1012.07 1013.49 1014.80
1013.39 1011.61 1010.46 1010.73 1010.57 1010.88 1009.88 1009.45 1009.29 1009.37 1008.79 1007.54 1005.18 1003.21 1002.91 1001.87 1002.53 1002.93 1003.38 1003.35 1002.59 1002.33 1001.62 1000.36 999.40 998.12 997.86 997.40 997.36 997.89 999.74 1000.85 1001.98 1003.04 1004.03 1005.04 1006.19 1007.33 1008.49 1009.88 1011.87 1012.88 1013.66 1014.38
1015.52 1014.45 1012.48 1011.78 1011.07 1011.05 1011.74 1010.98 1010.07 1010.04 1008.93 1007.07 1005.63 1004.52 1004.30 1005.65 1005.96 1005.89 1004.72 1003.92 1003.09 1001.73 1001.54 1000.59 999.68 998.71 997.55 997.36 997.40 998.32 999.41 1000.85 1002.14 1003.49 1004.44 1005.45 1006.21 1007.40 1008.58 1009.95 1010.50 1012.89 1014.12 1014.73
1016.02 1016.22 1013.63 1012.81 1012.35 1012.66 1012.89 1012.84 1012.91 1012.67 1011.25 1010.40 1009.42 1007.66 1008.23 1008.08 1008.02 1007.56 1005.77 1004.08 1002.91 1002.59 1001.70 1001.10 1000.62 1000.04 999.31 998.77 998.71 998.99 999.78 1000.77 1002.12 1003.90 1004.94 1005.88 1006.95 1008.09 1009.50 1010.44 1010.86 1012.28 1014.04 1014.46
1016.45 1016.51 1015.63 1014.09 1012.89 1012.94 1013.65 1014.79 1014.70 1014.71 1012.92 1011.70 1011.07 1009.24 1008.60 1007.11 1007.83 1007.99 1006.03 1003.79 1003.12 1002.68 1001.27 1000.93 1001.20 1001.11 1000.87 1000.17 999.93 999.67 1000.13 1001.34 1002.05 1003.35 1004.70 1005.70 1006.71 1008.00 1009.19 1010.29 1012.28 1012.98 1014.06 1015.19
1016.39 1016.73 1016.38 1015.06 1014.56 1014.28 1014.08 1014.50 1014.24 1014.65 1014.37 1012.59 1010.56 1010.05 1008.63 1006.26 1006.91 1006.43 1005.48 1004.13 1003.28 1001.86 1001.61 1001.29 1001.34 1001.03 1001.43 1001.36 1000.89 1000.95 1001.17 1001.95 1002.75 1003.63 1004.95 1005.95 1006.47 1007.65 1008.47 1009.70 1010.74 1013.29 1013.58 1014.66
1015.74 1016.63 1016.82 1016.30 1015.41 1014.67 1014.70 1014.45 1013.89 1014.30 1013.54 1012.03 1011.05 1009.11 1007.04 1006.62 1005.41 1005.15 1004.14 1003.53 1002.44 1001.77 1000.85 1001.14 1001.05 1000.88 1001.25 1001.35 1001.83 1001.86 1002.33 1002.64 1003.18 1004.15 1005.05 1005.80 1006.57 1007.61 1008.74 1009.70 1011.90 1012.60 1013.75 1014.86
1016.12 1016.28 1016.59 1016.56 1015.97 1015.04 1014.61 1014.23 1012.55 1013.34 1012.10 1012.08 1009.72 1008.50 1006.94 1005.27 1005.39 1004.41 1003.57 1002.49 1002.06 1000.72 1000.46 1000.76 1000.64 1000.50 1000.75 1001.53 1001.97 1002.61 1002.95 1003.18 1003.59 1004.28 1005.38 1006.13 1006.92 1007.70 1008.61 1009.74 1011.82 1013.16 1013.40 1014.70
1016.56 1016.73 1016.74 1016.64 1015.57 1015.16 1014.77 1013.59 1011.71 1011.86 1011.31 1010.55 1009.35 1007.60 1006.83 1005.68 1004.65 1004.15 1002.97 1002.49 1001.37 1000.27 1000.05 1000.79 1000.44 1000.19 999.73 1000.81 1001.85 1002.50 1003.31 1003.52 1004.18 1004.61 1005.64 1006.43 1007.20 1008.14 1009.10 1010.13 1012.14 1012.86 1013.70 1014.66
1017.08 1017.67 1017.79 1017.07 1015.93 1015.35 1014.15 1012.32 1011.31 1010.64 1010.12 1009.51 1008.36 1007.43 1007.22 1006.14 1005.31 1003.99 1002.92 1002.64 1001.57 1000.65 1000.18 1001.09 1000.37 999.62 999.03 999.43 1001.21 1002.21 1002.76 1003.70 1004.31 1005.00 1005.92 1006.74 1007.46 1008.51 1009.25 1010.50 1011.57 1012.95 1013.81 1014.65
1016.67 1017.75 1018.18 1017.57 1016.53 1015.73 1012.64 1011.86 1011.34 1010.83 1009.14 1008.67 1008.40 1008.13 1007.54 1007.15 1006.00 1004.57 1003.77 1002.86 1001.56 1001.13 1001.34 1001.42 1000.07 998.82 999.11 998.82 1000.04 1002.29 1003.13 1003.29 1003.98 1005.15 1005.93 1006.87 1007.42 1008.10 1009.27 1010.39 1011.45 1012.55 1013.68 1014.45
1016.45 1017.53 1018.29 1018.00 1016.75 1014.90 1013.13 1012.41 1012.12 1011.20 1009.69 1009.34 1009.17 1008.58 1007.67 1006.87 1005.64 1003.88 1003.30 1002.89 1002.06 1002.28 1001.97 1001.51 1000.16 998.71 998.71 999.35 999.64 1001.86 1003.17 1003.50 1003.79 1004.91 1005.73 1006.77 1007.38 1008.31 1009.25 1010.15 1011.16 1012.26 1013.60 1014.70
1016.34 1017.14 1017.81 1017.88 1016.99 1015.02 1013.01 1012.25 1011.54 1011.36 1010.02 1009.50 1009.25 1008.54 1007.49 1006.92 1005.81 1003.89 1003.37 1002.85 1002.52 1001.86 1001.40 1000.79 999.77 999.05 999.31 999.52 1000.05 1001.31 1002.58 1003.43 1003.70 1004.17 1005.30 1006.48 1007.08 1007.67 1008.81 1010.44 1011.26 1011.93 1013.66 1014.94
1016.61 1017.26 1017.30 1017.18 1016.81 1014.53 1012.51 1011.67 1010.84 1011.02 1010.39 1009.55 1009.02 1008.05 1007.24 1007.01 1006.39 1004.67 1004.08 1003.10 1002.43 1001.01 1001.23 1000.24 999.97 1000.33 1000.93 1000.99 1001.12 1001.71 1001.91 1002.88 1003.30 1003.91 1005.50 1007.12 1007.50 1008.24 1009.14 1010.19 1011.05 1012.25 1013.62 1015.01
1015.60 1016.34 1016.79 1016.77 1016.18 1013.92 1011.55 1011.01 1010.85 1010.08 1008.95 1008.81 1008.28 1007.73 1006.98 1006.12 1004.95 1004.57 1003.51 1002.34 1001.35 1000.20 1000.50 1000.45 1000.41 1001.20 1001.54 1001.64 1001.91 1002.56 1002.62 1002.93 1003.34 1003.76 1005.31 1006.61 1007.51 1008.32 1009.14 1010.02 1011.27 1012.67 1013.73 1014.78
1014.77 1014.12 1014.48 1014.29 1012.70 1011.16 1010.55 1010.09 1009.35 1009.18 1008.93 1008.04 1007.88 1007.27 1006.64 1005.57 1004.49 1003.61 1002.63 1001.53 1000.52 1000.67 1001.26 1000.98 1001.35 1001.05 1001.29 1001.73 1002.15 1003.05 1003.52 1003.50 1003.21 1004.31 1005.30 1006.73 1008.19 1008.87 1009.13 1009.79 1011.14 1012.67 1013.51 1014.63
1013.32 1012.94 1013.15 1012.94 1010.82 1010.38 1009.74 1009.18 1008.76 1008.42 1007.89 1007.38 1007.06 1006.33 1005.55 1004.79 1004.06 1003.41 1002.56 1001.69 1001.18 1001.13 1001.22 1000.55 1000.64 1001.81 1002.22 1002.39 1002.74 1003.35 1003.95 1003.55 1003.91 1005.01 1005.79 1006.87 1007.88 1008.82 1009.54 1010.44 1011.18 1012.06 1013.09 1014.18
1012.30 1012.13 1011.45 1011.12 1010.05 1009.54 1008.95 1008.50 1008.09 1007.54 1007.15 1006.83 1006.41 1005.77 1005.01 1004.38 1003.78 1003.27 1002.90 1002.63 1001.93 1001.50 1001.00 1000.84 1001.20 1001.43 1002.15 1002.54 1002.68 1003.09 1003.53 1003.66 1004.25 1005.08 1006.04 1007.09 1008.33 1008.81 1009.67 1010.33 1010.82 1011.49 1012.29 1012.80
1010.94 1009.85 1010.55 1009.24 1008.42 1008.83 1007.98 1007.52 1007.39 1007.23 1006.65 1006.22 1005.85 1005.03 1004.47 1004.20 1003.72 1003.32 1002.92 1002.71 1002.49 1002.28 1001.97 1001.64 1001.83 1002.19 1002.40 1002.37 1002.67 1003.31 1003.68 1004.27 1004.56 1005.08 1006.47 1007.51 1008.39 1008.88 1009.73 1010.30 1011.19 1011.62 1012.25 1013.44
Thickness
5639 5628 5639 5644 5642 5647 5640 5632 5628 5631 5644 5642 5642 5673 5718 5704 5701 5704 5711 5712 5723 5726 5733 5731 5725 5720 5709 5704 5697 5690 5681 5672 5663 5654 5644 5633 5627 5619 5614 5612 5609 5606 5607 5603
5638 5638 5643 5638 5633 5630 5630 5626 5633 5638 5636 5628 5626 5662 5703 5710 5713 5709 5719 5730 5729 5732 5730 5728 5723 5717 5711 5706 5694 5685 5681 5673 5665 5655 5645 5635 5624 5613 5608 5604 5600 5598 5596 5592
5632 5642 5647 5637 5625 5616 5623 5611 5621 5613 5615 5620 5613 5648 5695 5717 5713 5713 5727 5728 5731 5730 5730 5720 5714 5714 5710 5704 5700 5692 5684 5672 5662 5652 5641 5630 5615 5603 5600 5600 5598 5593 5588 5584
5616 5634 5637 5625 5615 5611 5620 5618 5612 5606 5597 5602 5612 5615 5680 5690 5698 5705 5701 5701 5706 5717 5713 5713 5709 5706 5704 5706 5696 5687 5679 5669 5657 5649 5645 5636 5627 5609 5604 5597 5589 5585 5580 5576
5611 5620 5616 5607 5607 5606 5618 5609 5601 5599 5593 5580 5625 5577 5650 5681 5683 5714 5692 5698 5699 5694 5704 5697 5696 5697 5698 5696 5690 5682 5668 5658 5652 5645 5639 5630 5620 5608 5597 5589 5581 5577 5568 5564
5593 5604 5599 5600 5600 5597 5599 5593 5585 5588 5584 5564 5620 5589 5587 5654 5693 5678 5681 5685 5675 5675 5682 5692 5683 5682 5682 5677 5672 5669 5664 5658 5650 5639 5633 5627 5617 5600 5589 5580 5575 5567 5561 5553
5583 5591 5597 5594 5579 5579 5574 5564 5545 5545 5557 5570 5615 5589 5615 5650 5665 5657 5648 5645 5648 5650 5658 5664 5670 5663 5668 5666 5661 5657 5655 5652 5647 5639 5630 5624 5613 5599 5591 5580 5576 5560 5551 5545
5553 5581 5581 5572 5566 5565 5557 5548 5534 5532 5556 5573 5585 5571 5615 5636 5630 5618 5610 5612 5619 5627 5633 5639 5644 5647 5653 5660 5655 5646 5644 5640 5636 5634 5627 5619 5608 5595 5584 5574 5566 5555 5549 5539
5525 5547 5564 5551 5553 5551 5557 5547 5556 5533 5542 5533 5561 5585 5600 5624 5599 5582 5583 5583 5588 5598 5603 5611 5622 5632 5639 5650 5651 5647 5632 5624 5618 5616 5610 5603 5595 5586 5577 5565 5550 5534 5533 5529
5482 5498 5531 5534 5533 5534 5521 5536 5533 5529 5528 5537 5547 5557 5564 5540 5526 5528 5543 5557 5566 5578 5580 5586 5597 5604 5620 5634 5636 5627 5620 5612 5604 5597 5593 5585 5582 5573 5565 5551 5539 5528 5521 5514
5462 5456 5498 5510 5508 5495 5492 5495 5481 5467 5504 5487 5474 5522 5484 5489 5487 5492 5520 5541 5553 5550 5554 5561 5562 5574 5585 5598 5605 5605 5603 5599 5592 5581 5575 5566 5561 5555 5546 5539 5533 5522 5508 5506
5444 5436 5427 5476 5498 5485 5470 5452 5450 5453 5464 5467 5464 5480 5480 5494 5486 5482 5501 5528 5534 5537 5546 5546 5544 5546 5555 5569 5580 5588 5588 5582 5580 5571 5560 5553 5550 5544 5538 5529 5505 5503 5496 5488
5432 5423 5412 5449 5454 5451 5450 5453 5444 5433 5433 5452 5451 5451 5485 5496 5502 5496 5493 5508 5519 5532 5534 5535 5534 5536 5534 5547 5557 5562 5566 5564 5560 5556 5548 5542 5542 5536 5534 5520 5508 5485 5490 5484
5430 5418 5410 5407 5417 5428 5425 5446 5449 5430 5425 5440 5433 5447 5492 5490 5498 5498 5504 5508 5517 5524 5533 5528 5526 5528 5523 5532 5529 5535 5542 5544 5546 5541 5536 5532 5528 5524 5517 5506 5485 5485 5477 5474
5407 5405 5406 5412 5420 5426 5424 5431 5441 5424 5436 5415 5448 5453 5481 5492 5488 5498 5502 5513 5517 5529 5530 5524 5525 5524 5519 5516 5513 5515 5522 5527 5530 5527 5521 5518 5517 5511 5504 5500 5478 5469 5475 5467
5391 5383 5383 5373 5414 5410 5404 5420 5437 5432 5435 5434 5441 5452 5470 5478 5488 5489 5499 5507 5515 5526 5529 5524 5522 5524 5530 5517 5511 5511 5507 5509 5511 5512 5508 5506 5501 5496 5491 5485 5468 5467 5464 5459
5374 5356 5356 5367 5401 5390 5377 5428 5429 5433 5441 5438 5436 5454 5449 5459 5470 5475 5488 5493 5501 5510 5519 5511 5521 5527 5534 5529 5514 5508 5503 5499 5501 5500 5496 5493 5488 5481 5480 5472 5467 5457 5452 5448
5370 5364 5347 5353 5378 5323 5413 5420 5417 5416 5437 5426 5423 5423 5433 5433 5448 5465 5473 5479 5486 5493 5502 5499 5511 5530 5525 5531 5520 5497 5494 5499 5495 5488 5486 5481 5481 5479 5471 5465 5459 5453 5442 5436
5367 5357 5333 5343 5359 5377 5405 5401 5394 5399 5415 5408 5403 5411 5417 5424 5433 5460 5465 5468 5474 5478 5483 5485 5501 5521 5521 5516 5515 5495 5488 5491 5491 5483 5479 5474 5472 5468 5464 5461 5455 5447 5436 5427
5361 5359 5347 5324 5332 5345 5391 5382 5385 5382 5392 5400 5397 5400 5411 5413 5420 5451 5453 5456 5463 5471 5475 5481 5492 5505 5503 5503 5501 5494 5485 5481 5481 5480 5473 5467 5466 5464 5458 5445 5442 5440 5424 5414
5328 5329 5342 5337 5324 5356 5373 5376 5382 5377 5378 5382 5387 5402 5407 5402 5409 5427 5433 5441 5452 5466 5460 5472 5478 5477 5475 5475 5477 5477 5481 5476 5474 5473 5464 5454 5457 5452 5445 5436 5432 5426 5416 5406
5357 5313 5312 5292 5286 5321 5376 5375 5367 5376 5391 5392 5394 5399 5402 5407 5410 5411 5423 5436 5446 5462 5455 5453 5464 5460 5456 5457 5460 5459 5465 5465 5466 5465 5456 5450 5446 5441 5435 5429 5421 5412 5405 5398
5344 5345 5330 5331 5334 5372 5370 5372 5381 5379 5382 5391 5389 5397 5401 5401 5413 5422 5426 5439 5450 5450 5442 5445 5443 5451 5445 5447 5447 5445 5444 5454 5461 5455 5448 5438 5428 5425 5427 5424 5414 5403 5397 5390
5353 5354 5340 5345 5377 5369 5374 5376 5380 5380 5385 5392 5395 5400 5407 5408 5415 5418 5424 5429 5435 5435 5437 5443 5446 5433 5433 5437 5439 5438 5437 5447 5448 5443 5437 5433 5428 5421 5415 5408 5404 5400 5391 5382
5347 5347 5353 5348 5363 5362 5365 5371 5374 5379 5383 5389 5396 5402 5407 5412 5414 5418 5416 5415 5420 5427 5434 5438 5438 5435 5428 5431 5435 5437 5437 5441 5440 5436 5430 5424 5416 5413 5406 5402 5399 5394 5386 5381
5351 5363 5338 5346 5369 5350 5364 5371 5370 5371 5383 5390 5394 5402 5407 5411 5412 5414 5416 5416 5415 5419 5425 5429 5428 5427 5426 5431 5431 5429 5428 5427 5428 5426 5417 5411 5406 5404 5397 5394 5388 5384 5376 5365